Temperature
19 20 20 20 20 20 20 19 19 19 19 19 19 19 19 19 19 19 19 18 18 18 18 18 18 18 18 18 18 18 18 18 17 17 17 17 17 17 17 17 17 17 17
20 20 20 20 20 20 19 19 19 19 19 19 19 19 19 19 19 19 19 18 18 18 18 18 18 18 18 18 18 18 17 17 17 17 17 17 17 17 17 17 17 17 17
21 20 20 20 20 20 19 19 19 19 19 19 19 19 18 18 18 18 18 18 18 18 18 18 18 18 18 18 18 17 17 17 17 17 17 17 17 17 17 17 17 17 17
21 20 20 20 20 20 19 19 19 19 19 19 19 18 18 18 18 18 18 18 18 18 18 18 18 18 18 17 17 17 17 17 17 17 17 17 17 17 17 17 17 17 17
21 20 20 20 20 20 19 19 19 19 19 19 18 18 18 18 18 18 18 18 18 18 18 18 18 18 17 17 17 17 17 17 17 17 17 17 17 17 17 17 17 17 17
21 20 20 20 20 20 19 19 19 19 19 18 18 18 18 18 18 18 18 18 18 18 18 18 18 17 17 17 17 17 17 17 17 17 17 17 17 17 17 17 17 17 17
21 20 20 20 20 20 20 19 19 19 19 18 18 18 18 18 18 18 18 18 18 18 18 18 18 17 17 17 17 17 17 17 17 17 17 17 17 17 17 17 17 17 17
21 21 20 20 20 20 20 19 19 19 19 19 18 18 18 18 18 18 18 18 18 18 18 18 18 17 17 17 17 17 17 17 17 17 17 17 17 17 17 17 17 17 17
21 21 20 20 20 20 20 19 19 19 19 19 19 18 18 18 18 18 18 18 18 18 18 18 18 17 17 17 17 17 17 17 17 17 17 17 17 17 17 17 17 17 17
21 21 20 20 20 20 19 19 19 19 19 19 19 18 18 18 18 18 18 18 18 18 18 18 18 17 17 17 17 17 17 17 17 17 17 17 17 17 17 17 17 17 17
20 20 20 20 20 20 20 19 19 19 19 19 18 18 18 18 18 18 18 18 18 18 18 18 18 17 17 17 17 17 17 17 17 17 17 17 17 17 17 17 17 17 17
20 20 20 20 20 20 19 19 19 19 19 18 18 18 18 18 18 18 18 18 18 18 18 18 18 18 17 17 17 17 17 17 17 17 17 17 17 17 17 17 17 17 17
21 20 20 20 20 20 19 19 19 19 19 18 18 18 18 18 18 18 18 18 18 18 18 18 18 18 18 17 17 17 17 17 17 17 17 17 17 17 17 17 17 17 17
20 20 20 20 20 19 19 19 19 19 19 18 18 18 18 18 18 18 18 18 18 18 18 18 18 18 18 17 17 17 17 17 17 17 17 17 17 17 17 17 17 17 17
20 20 20 19 19 19 19 19 19 19 19 18 18 18 18 18 18 18 18 18 18 18 18 18 17 17 17 17 17 17 17 17 17 17 17 17 17 17 17 17 17 17 17
21 20 20 19 19 19 19 19 19 19 19 18 18 18 18 18 18 18 18 18 18 18 17 18 18 17 17 17 17 17 17 17 17 17 17 17 17 17 17 17 17 17 17
21 20 20 19 19 19 19 19 19 19 18 18 18 18 18 18 18 18 18 18 18 17 17 17 17 17 17 17 17 17 17 17 17 17 17 17 17 17 17 17 17 17 17
21 20 20 19 19 19 19 19 19 18 18 18 18 18 18 18 18 18 18 18 18 17 17 17 17 17 17 17 17 17 17 17 17 17 17 17 17 17 17 17 17 17 17
21 20 20 20 19 19 19 19 18 18 18 18 18 18 18 18 18 18 18 18 18 17 18 18 17 17 17 17 17 17 17 17 17 17 17 17 17 17 17 17 17 17 17
21 20 20 20 19 19 19 19 18 18 18 18 18 18 18 18 18 18 18 18 18 18 18 17 17 17 17 17 17 17 17 17 17 17 17 17 17 17 17 17 17 17 17
20 20 20 20 19 19 19 19 19 18 18 18 18 18 18 18 18 18 18 18 18 18 18 18 17 17 17 17 17 17 17 17 17 17 17 17 17 17 17 17 17 17 17
20 20 20 19 19 19 19 19 19 18 18 18 18 18 18 18 18 18 18 18 18 18 18 18 17 17 18 17 17 17 17 18 18 17 17 17 17 17 17 17 17 17 17
20 20 19 19 19 19 19 18 18 18 18 18 18 18 18 18 18 18 18 18 18 18 18 18 17 17 18 17 17 17 17 18 18 18 18 18 17 17 17 17 17 17 17
20 20 19 19 19 19 18 18 18 18 18 18 18 18 18 18 18 18 18 18 18 18 18 18 18 17 17 18 17 17 17 18 17 17 18 18 17 17 17 17 17 17 17
20 20 19 19 19 18 18 18 18 18 18 18 18 18 18 18 18 18 18 18 18 18 18 18 18 18 18 18 18 17 17 17 17 17 17 17 17 17 17 17 17 17 17
20 19 19 19 19 18 18 18 18 18 18 18 18 18 18 18 18 18 18 18 18 18 18 18 18 18 18 18 18 17 18 17 18 17 17 17 17 17 17 17 17 17 17
Wind_Speed
6 10 16 17 17 17 17 16 17 17 17 18 18 18 18 18 18 17 17 16 16 16 16 16 17 17 17 17 17 18 19 19 18 18 18 18 18 18 18 18 17 17 19
10 14 17 17 17 16 16 16 16 16 17 16 17 17 17 17 17 16 16 15 15 16 16 16 16 16 16 16 17 18 18 18 18 18 18 18 18 18 18 17 16 16 18
13 15 16 17 17 16 16 16 16 16 16 16 15 15 15 15 15 15 15 15 15 15 15 15 15 16 16 16 17 17 17 18 18 18 17 15 16 17 17 17 17 18 18
14 15 16 17 17 16 16 16 16 15 15 15 15 14 14 14 15 15 15 15 15 15 15 15 14 15 15 15 15 16 16 17 17 16 13 13 14 16 17 17 17 17 17
13 15 17 18 17 17 16 16 15 15 15 15 14 14 14 14 14 14 14 14 14 14 14 14 14 14 14 13 13 13 14 14 15 14 13 13 14 16 16 16 16 17 17
11 15 18 18 18 17 16 16 15 15 14 14 14 14 14 13 14 13 13 14 13 13 13 13 13 12 12 12 12 12 13 15 14 13 13 13 13 15 15 15 16 16 16
12 14 17 18 17 17 16 15 15 15 14 14 13 13 13 13 13 13 13 13 13 12 12 11 11 11 11 10 10 11 13 14 14 12 12 12 13 14 14 15 15 15 15
14 13 16 18 17 17 16 15 15 14 14 14 13 13 13 13 13 13 12 12 12 12 11 10 10 10 9 9 10 11 14 14 13 12 11 11 13 13 14 14 14 15 15
13 12 12 15 16 16 15 15 14 14 14 13 13 13 13 13 13 12 12 11 11 11 10 9 9 8 8 8 9 11 13 12 12 11 11 11 13 13 13 14 14 14 14
10 9 9 12 13 13 14 14 14 14 13 13 13 13 13 13 12 12 11 11 11 10 9 9 8 7 6 7 8 10 12 12 10 10 10 11 13 13 13 13 13 13 13
11 8 8 9 11 12 13 13 13 13 13 13 12 13 12 11 11 10 10 10 10 9 8 7 6 5 4 5 6 8 10 10 10 9 10 12 13 13 13 12 12 12 12
12 11 9 9 10 11 11 12 11 10 11 11 10 11 11 10 9 9 10 9 9 8 6 5 3 2 2 3 4 7 9 11 9 10 10 13 12 12 12 12 11 11 11
14 12 11 10 10 10 7 10 9 8 10 10 10 11 10 9 8 8 7 7 6 6 4 3 2 1 1 1 2 5 8 10 9 9 11 13 13 12 12 12 11 11 11
12 12 11 10 9 9 9 9 9 7 8 8 10 12 10 7 6 6 6 6 5 4 4 3 2 2 1 2 3 6 9 9 9 10 11 13 13 12 12 12 11 11 11
11 10 11 10 9 8 8 7 8 7 8 9 10 12 12 8 5 6 5 6 6 6 6 5 3 2 2 2 3 7 9 10 10 10 11 12 13 13 12 12 12 11 11
11 10 9 10 9 9 7 5 6 7 8 9 9 11 13 11 8 6 5 5 6 7 7 6 5 3 2 2 3 6 9 10 10 11 11 12 13 13 13 12 12 12 12
11 10 10 10 9 9 7 6 6 7 8 7 8 11 12 12 11 8 5 4 6 8 7 5 4 3 2 2 2 4 7 8 10 11 12 12 12 13 13 13 12 12 12
10 10 10 10 9 8 6 5 5 6 7 7 8 10 12 12 11 8 5 4 7 7 6 3 2 2 1 1 2 2 3 6 9 10 11 12 12 12 13 14 14 14 13
11 10 9 8 9 8 6 5 5 5 6 7 7 8 10 11 11 8 5 5 7 5 3 3 2 3 2 2 2 2 3 3 5 9 9 11 13 13 13 14 15 15 15
9 9 8 8 7 7 5 4 3 3 3 4 6 7 9 9 10 8 5 5 6 4 3 3 3 2 3 3 2 2 2 3 4 5 7 10 12 14 14 14 14 15 16
7 7 7 8 7 6 4 4 3 2 2 2 4 7 9 10 9 7 4 4 5 4 5 5 3 3 2 2 2 1 3 2 3 4 5 6 8 12 14 14 14 13 13
8 7 7 7 7 7 5 4 3 3 2 3 3 5 8 9 9 8 6 4 4 4 4 4 4 3 2 2 3 2 2 4 3 3 3 5 6 8 9 12 13 13 13
8 8 8 7 7 7 6 4 3 2 1 1 2 3 5 8 9 8 7 6 5 4 4 4 5 5 3 2 3 4 3 3 2 3 2 3 4 4 5 8 11 12 12
8 7 7 7 7 6 6 6 6 5 4 5 4 4 4 6 7 8 7 6 5 4 5 5 5 4 4 3 2 2 3 4 3 1 3 2 2 3 4 4 6 8 10
7 7 7 7 7 6 6 7 6 4 4 3 3 4 4 3 5 6 7 6 5 4 5 5 4 4 4 4 3 2 2 1 2 3 2 2 1 1 2 2 3 4 6
6 6 6 7 6 6 6 6 6 5 4 4 4 4 3 3 3 4 5 5 5 4 5 5 5 5 5 4 4 3 3 3 3 3 3 3 2 2 1 0 1 2 4
Wind_Direction
132 134 126 121 116 112 109 106 103 101 97 96 96 96 97 99 101 102 103 105 106 106 105 105 105 104 105 105 107 108 110 111 112 112 112 112 112 112 112 112 111 112 115
139 136 128 123 119 116 114 111 108 104 101 100 99 99 100 102 103 104 104 105 106 107 107 106 106 106 106 106 108 109 110 110 110 109 108 108 110 110 110 111 114 118 117
132 133 129 126 124 121 119 115 112 109 106 104 103 102 103 105 105 105 105 106 107 107 107 106 105 106 106 107 109 110 110 109 108 107 104 102 107 109 109 110 114 116 117
131 132 132 130 127 123 121 118 115 113 111 108 107 107 107 107 108 108 108 109 110 109 109 109 108 107 107 108 110 110 110 110 109 108 102 103 108 110 110 111 114 117 117
127 131 135 133 129 126 124 122 120 118 116 114 112 112 111 111 112 111 112 113 112 111 110 110 110 110 109 110 108 106 107 109 108 106 101 101 108 113 112 112 117 120 118
127 132 136 135 133 131 129 127 125 123 120 118 117 116 115 114 114 114 115 115 115 115 113 112 112 112 112 111 107 104 108 111 108 108 106 107 112 116 115 114 117 121 120
132 135 139 138 137 135 133 131 129 126 124 121 120 120 118 117 117 117 117 117 117 118 117 115 115 116 114 109 105 101 113 115 113 113 111 113 117 119 118 117 115 119 123
138 138 140 141 140 138 136 135 133 131 129 126 125 125 123 122 122 122 121 121 121 121 120 118 118 117 114 107 103 102 118 122 121 122 118 121 124 123 122 123 123 122 122
137 137 138 142 142 142 141 140 137 136 135 133 131 129 128 128 128 127 126 125 125 125 123 121 119 116 110 105 101 108 122 126 123 130 128 128 130 129 128 129 128 127 126
138 141 140 141 142 143 145 145 143 142 140 139 137 135 135 133 133 133 132 131 131 131 130 127 123 119 111 101 102 112 122 128 127 132 131 136 136 135 134 134 134 133 131
146 150 148 147 147 148 150 152 151 149 147 145 144 142 137 132 135 140 143 142 140 139 137 135 128 118 101 96 98 109 122 129 127 133 139 144 144 143 142 140 140 139 139
158 163 163 160 158 159 158 149 153 153 152 151 151 146 144 145 150 152 153 151 150 148 146 149 143 117 86 79 94 107 122 130 127 138 148 151 151 149 149 148 148 147 145
166 168 168 166 166 166 152 153 161 160 160 163 166 161 155 153 155 154 152 153 156 157 159 172 173 228 216 161 110 121 136 138 138 148 157 157 156 156 155 154 153 153 152
161 166 167 167 166 166 157 164 168 168 172 174 177 173 160 153 153 156 157 165 173 181 187 199 219 233 247 209 156 140 141 143 149 152 161 161 162 162 162 162 162 161 160
157 163 167 162 163 163 158 168 171 176 177 182 178 175 169 161 163 168 175 183 193 198 196 198 204 206 211 186 148 141 144 149 155 159 167 169 170 170 171 171 172 173 171
160 161 160 159 161 160 163 168 166 177 177 176 178 176 173 169 168 170 177 187 200 203 197 187 185 181 181 165 142 145 153 158 162 168 173 178 181 180 181 181 181 181 182
161 159 157 158 156 158 159 161 164 173 171 171 178 177 172 169 168 167 170 182 196 197 184 170 172 165 172 166 164 159 159 168 171 175 179 182 186 190 192 192 192 192 193
156 156 162 163 156 157 151 142 151 162 164 168 172 172 171 170 169 164 168 182 187 177 165 152 154 150 166 170 174 186 168 170 179 184 187 190 191 196 201 203 202 202 203
158 158 160 155 156 156 146 138 145 153 159 163 165 169 174 174 171 164 173 182 175 163 162 174 155 160 168 185 191 193 197 188 187 192 196 200 200 202 205 209 211 210 211
153 154 156 152 155 151 141 127 119 124 140 158 167 172 177 176 171 166 171 176 164 155 166 168 170 175 177 183 203 209 223 216 201 199 202 202 206 208 209 211 214 218 220
151 155 159 156 160 155 149 149 145 151 161 172 184 178 181 183 176 167 165 168 166 169 180 176 170 182 193 153 106 350 323 272 226 217 204 197 205 210 210 211 212 215 222
160 161 158 162 164 168 165 160 160 154 169 185 195 186 186 186 183 179 171 177 177 170 175 180 167 161 199 164 147 122 343 336 311 244 214 206 210 208 212 217 217 217 220
163 169 172 167 168 174 162 143 134 112 106 156 193 200 203 195 192 186 181 178 181 177 187 195 183 172 192 216 176 155 165 223 285 316 249 216 207 206 213 218 215 217 218
170 167 164 164 167 173 164 162 168 175 193 207 199 201 204 195 193 190 186 184 186 185 191 202 193 184 175 202 220 203 185 168 169 289 319 286 233 216 214 211 209 211 213
169 166 166 164 169 173 171 172 179 190 202 204 193 184 196 199 194 195 191 187 188 192 196 200 189 184 184 189 195 194 193 185 176 174 249 295 315 283 226 199 189 196 212
163 164 164 167 176 179 180 180 186 192 195 190 184 181 195 198 201 207 202 196 197 196 199 201 196 192 194 191 192 187 184 186 196 186 210 233 248 291 304 222 161 175 197
Height
1540 1540 1542 1542 1543 1543 1544 1545 1545 1546 1546 1547 1547 1548 1548 1549 1550 1550 1551 1551 1552 1552 1553 1553 1554 1554 1555 1555 1556 1556 1557 1557 1558 1558 1559 1560 1561 1561 1562 1562 1563 1564 1565
1539 1541 1543 1544 1544 1545 1545 1546 1547 1548 1548 1549 1549 1550 1551 1551 1552 1552 1553 1553 1553 1554 1555 1555 1556 1556 1557 1557 1558 1558 1559 1559 1560 1561 1561 1562 1563 1563 1564 1564 1565 1566 1567
1540 1542 1544 1545 1546 1547 1547 1548 1548 1549 1550 1551 1551 1552 1553 1553 1554 1554 1555 1555 1556 1556 1557 1557 1558 1558 1559 1559 1560 1560 1561 1562 1562 1563 1564 1564 1565 1565 1566 1566 1567 1568 1569
1541 1543 1545 1546 1547 1548 1549 1549 1550 1551 1552 1552 1553 1554 1554 1555 1556 1556 1557 1557 1558 1558 1559 1559 1560 1561 1561 1562 1562 1563 1563 1564 1565 1565 1566 1566 1567 1568 1568 1568 1569 1570 1571
1542 1544 1546 1547 1548 1549 1550 1551 1552 1552 1553 1554 1555 1555 1556 1557 1557 1558 1558 1559 1560 1560 1561 1561 1562 1563 1563 1564 1565 1565 1566 1566 1567 1567 1568 1569 1569 1570 1570 1571 1571 1572 1573
1543 1545 1547 1548 1549 1550 1551 1552 1553 1554 1555 1555 1556 1557 1558 1558 1559 1560 1560 1561 1562 1562 1563 1564 1564 1565 1566 1567 1567 1568 1568 1569 1569 1570 1570 1571 1571 1572 1572 1573 1573 1574 1575
1544 1546 1548 1549 1550 1551 1552 1553 1554 1555 1556 1557 1558 1558 1559 1560 1561 1561 1562 1563 1563 1564 1565 1566 1567 1567 1568 1569 1569 1570 1570 1571 1571 1572 1573 1573 1574 1574 1575 1575 1576 1576 1577
1544 1546 1548 1550 1551 1552 1553 1555 1556 1556 1557 1558 1559 1560 1561 1562 1562 1563 1564 1565 1565 1566 1567 1568 1569 1570 1571 1571 1572 1572 1572 1573 1574 1574 1575 1575 1576 1576 1577 1577 1578 1578 1579
1546 1547 1549 1550 1552 1553 1554 1556 1556 1558 1559 1559 1560 1561 1562 1563 1564 1565 1566 1567 1567 1568 1569 1570 1571 1572 1573 1573 1574 1574 1575 1575 1576 1576 1577 1577 1578 1578 1578 1579 1580 1580 1581
1547 1548 1549 1551 1553 1554 1555 1556 1557 1559 1560 1561 1562 1563 1564 1565 1566 1567 1568 1569 1569 1570 1571 1572 1573 1574 1575 1575 1576 1576 1577 1577 1578 1578 1579 1579 1579 1580 1580 1581 1581 1582 1583
1547 1549 1550 1551 1553 1554 1555 1557 1558 1559 1561 1562 1563 1564 1565 1566 1567 1568 1569 1570 1571 1572 1573 1574 1575 1576 1577 1577 1578 1578 1579 1579 1579 1580 1580 1581 1581 1581 1582 1582 1583 1584 1584
1547 1549 1550 1552 1553 1555 1556 1558 1559 1560 1561 1563 1564 1565 1566 1567 1568 1570 1571 1572 1573 1574 1575 1576 1577 1578 1578 1579 1580 1580 1580 1580 1581 1581 1581 1582 1582 1582 1583 1583 1584 1585 1586
1546 1548 1550 1552 1554 1555 1557 1558 1559 1561 1562 1563 1565 1566 1567 1568 1569 1571 1572 1573 1574 1575 1576 1577 1578 1579 1580 1580 1581 1581 1581 1581 1582 1582 1582 1583 1583 1584 1584 1584 1585 1586 1586
1546 1548 1550 1552 1554 1555 1557 1558 1560 1561 1562 1564 1565 1566 1568 1569 1570 1572 1573 1574 1576 1576 1577 1578 1579 1580 1581 1581 1582 1582 1582 1582 1583 1583 1583 1584 1584 1584 1585 1585 1586 1586 1587
1545 1547 1549 1551 1553 1555 1557 1559 1560 1561 1562 1564 1565 1567 1568 1569 1571 1572 1574 1575 1576 1577 1578 1579 1580 1581 1581 1582 1582 1582 1583 1583 1583 1584 1584 1584 1585 1585 1586 1586 1586 1587 1588
1544 1546 1549 1551 1553 1555 1557 1558 1560 1561 1562 1564 1565 1567 1568 1570 1571 1573 1574 1575 1576 1578 1579 1579 1580 1581 1582 1582 1583 1583 1583 1584 1584 1584 1584 1585 1585 1585 1586 1586 1587 1587 1588
1543 1546 1548 1550 1552 1554 1556 1558 1559 1560 1562 1563 1565 1567 1568 1570 1571 1572 1574 1575 1576 1577 1579 1579 1580 1581 1582 1582 1583 1583 1583 1584 1584 1584 1585 1585 1585 1586 1586 1586 1587 1587 1588
1543 1545 1547 1549 1551 1554 1556 1557 1558 1560 1562 1563 1564 1566 1568 1569 1571 1572 1573 1575 1576 1577 1578 1579 1580 1581 1582 1582 1583 1583 1583 1583 1584 1584 1585 1585 1585 1585 1586 1586 1586 1587 1587
1542 1544 1546 1548 1550 1552 1554 1556 1558 1559 1561 1562 1564 1565 1567 1569 1570 1572 1573 1574 1575 1577 1578 1579 1580 1580 1581 1582 1582 1582 1583 1583 1583 1584 1584 1584 1585 1585 1585 1586 1586 1586 1586
1541 1543 1545 1547 1549 1551 1553 1554 1557 1558 1560 1561 1563 1564 1566 1567 1569 1571 1572 1573 1574 1576 1577 1578 1578 1579 1580 1581 1581 1581 1582 1582 1582 1583 1583 1583 1584 1584 1585 1585 1585 1585 1585
1540 1541 1543 1545 1547 1549 1551 1553 1555 1557 1559 1560 1562 1563 1564 1566 1568 1569 1571 1572 1573 1574 1575 1576 1577 1578 1578 1579 1580 1580 1580 1580 1581 1581 1581 1582 1582 1583 1583 1584 1584 1584 1584
1538 1540 1541 1543 1545 1547 1549 1552 1554 1556 1557 1559 1560 1561 1563 1565 1566 1568 1569 1570 1572 1573 1573 1574 1575 1576 1577 1578 1578 1578 1579 1580 1579 1579 1579 1580 1580 1581 1582 1582 1583 1583 1583
1537 1538 1540 1541 1543 1545 1547 1550 1552 1554 1556 1557 1559 1560 1561 1563 1565 1566 1567 1568 1570 1570 1571 1572 1573 1574 1575 1576 1577 1577 1577 1577 1577 1577 1577 1578 1578 1579 1579 1580 1580 1580 1580
1536 1537 1539 1540 1541 1543 1545 1548 1549 1551 1553 1554 1556 1558 1559 1561 1563 1564 1565 1566 1567 1568 1569 1570 1571 1572 1573 1573 1574 1575 1576 1576 1576 1576 1576 1576 1576 1576 1577 1577 1577 1578 1578
1535 1536 1537 1539 1540 1542 1544 1546 1548 1549 1551 1553 1555 1556 1557 1559 1561 1562 1563 1564 1565 1566 1567 1568 1569 1570 1570 1571 1572 1572 1573 1573 1574 1574 1574 1574 1574 1574 1574 1575 1575 1575 1575
1534 1535 1537 1538 1539 1541 1542 1544 1546 1547 1549 1551 1552 1554 1555 1557 1558 1560 1561 1561 1562 1563 1564 1565 1566 1567 1568 1568 1569 1570 1570 1571 1571 1571 1571 1571 1571 1572 1572 1572 1572 1572 1572